STARLINK-36110

Last updated on Fri Dec 19 2025 00:02:08 GMT+0000 (Coordinated Universal Time)

1 66945U 25286W 25352.58336806 -.01410095 00000+0 -73990-2 0 9990 2 66945 53.1550 20.9865 0000959 72.1833 75.0577 15.82621252 2937
UTC large
Height (km)
Speed (km/s)
/
Latitude / Longitude
Inclination (degrees)
Orbital Period (minutes)
Azimuth
Elevation
Range (km)
Doppler Factor

Next 0 passes for location: London (51.5072 / 0.1276)

Sorry there are no passes over London.